Wind_Speed
16 15 14 12 12 11 10 11 10 16 18 21 23 23 19 18 20 21 29 32 34 36 37 38 38 42 43 44 41 34 31 31 35 37 37 35 31 30 31 32 31 33 34 35 36 35 35 36 37
17 18 17 16 15 11 10 13 23 13 19 24 24 25 29 20 27 26 31 30 32 35 38 39 40 42 43 44 41 32 31 34 35 36 35 34 32 30 31 31 29 28 30 34 36 36 36 36 36
21 20 20 20 19 11 9 19 10 26 25 25 24 29 29 26 33 28 27 32 32 34 36 36 39 42 44 42 41 34 34 37 37 35 34 33 32 31 31 28 28 28 28 30 32 36 37 36 37
24 25 23 23 21 16 20 9 18 29 23 28 24 26 31 38 31 31 31 33 35 34 36 36 41 42 43 39 38 35 35 37 35 33 33 33 34 34 34 33 32 27 25 28 31 33 35 37 37
28 29 28 24 24 22 21 27 26 24 22 28 24 25 30 43 32 32 33 35 37 37 38 39 40 40 40 37 38 35 36 35 32 34 34 35 35 36 38 39 39 37 33 29 28 32 33 34 36
33 32 29 27 21 20 25 33 35 32 23 23 29 26 25 38 36 31 34 38 40 46 41 43 40 38 38 36 36 35 36 32 32 34 35 38 39 39 38 38 39 40 37 36 34 32 33 34 35
36 36 32 27 20 18 25 29 31 28 21 21 25 30 25 30 41 34 40 40 42 45 46 43 36 35 35 34 36 36 35 32 33 34 38 39 39 38 37 34 31 31 30 30 31 33 34 32 34
40 42 41 31 26 25 23 36 31 35 25 27 37 39 26 30 42 36 41 42 44 48 47 42 36 33 33 36 37 38 38 35 36 35 39 38 37 37 35 33 29 29 29 29 29 30 31 34 32
45 47 46 41 33 33 24 26 28 41 41 40 41 41 37 40 41 39 41 40 40 48 44 40 38 32 35 37 36 40 39 37 38 38 39 38 38 38 34 29 29 28 28 29 29 30 30 32 33
52 48 47 43 38 30 31 29 30 35 36 42 42 39 42 40 43 41 42 41 41 39 42 35 35 33 34 36 36 41 39 39 40 39 39 40 37 34 33 31 30 31 30 31 30 29 30 31 33
50 54 46 45 38 39 36 40 38 42 44 42 46 40 44 42 43 41 42 43 42 39 41 36 36 35 35 37 39 41 39 40 38 39 38 38 36 35 32 31 32 32 33 34 30 30 28 28 31
56 54 52 48 48 47 46 43 43 47 51 55 44 43 44 41 41 40 41 40 40 43 39 37 37 37 36 38 42 41 41 35 39 34 34 35 36 33 32 32 34 34 34 30 29 29 28 27 29
65 62 59 54 53 52 55 59 62 61 52 51 46 45 47 46 44 38 42 41 42 41 35 36 36 36 36 40 43 41 36 35 35 35 33 34 32 31 32 33 34 30 31 30 29 28 30 31 28
59 61 62 61 61 59 62 57 58 59 53 46 49 49 48 45 45 40 42 42 39 38 33 32 35 34 35 42 41 32 31 35 32 36 35 31 31 32 34 34 29 29 29 28 25 26 28 30 29
66 69 69 67 63 62 58 59 55 50 52 48 53 51 49 45 41 39 42 42 36 33 28 29 34 33 36 39 31 31 33 34 34 36 35 33 32 32 34 34 30 29 27 26 23 24 25 27 30
68 68 67 55 54 56 47 58 45 45 45 45 43 42 48 43 42 39 41 43 33 27 28 27 30 31 36 34 32 32 32 33 38 37 36 34 34 33 35 34 31 31 29 28 27 27 26 24 26
61 60 51 52 51 46 45 53 45 42 43 45 42 49 47 45 44 43 47 41 30 29 28 27 28 33 34 31 35 31 33 35 37 38 38 36 34 35 34 32 33 33 33 32 31 31 31 30 28
51 53 60 55 51 44 45 49 42 46 46 47 47 50 51 46 48 45 45 39 33 30 30 28 29 32 36 33 34 31 36 37 38 40 38 36 37 36 33 33 34 35 33 30 27 26 27 29 30
58 61 58 51 46 39 41 43 48 52 45 46 47 49 53 46 44 40 38 35 34 29 29 30 30 33 32 35 32 34 37 40 40 40 35 37 37 36 34 37 34 35 32 30 28 28 27 29 27
55 58 52 51 48 39 40 43 46 46 48 42 43 43 47 45 38 35 34 31 33 28 26 26 31 32 32 32 34 37 39 40 40 38 35 36 39 38 37 35 36 32 30 25 23 24 24 26 28
56 52 50 46 44 37 40 52 47 48 43 39 39 44 45 37 33 31 31 28 30 25 24 28 31 30 32 34 36 37 37 38 35 37 36 35 37 34 34 33 29 24 21 18 17 18 19 22 24
51 49 46 47 49 46 39 50 44 42 34 38 34 34 31 31 29 28 29 27 27 24 25 29 33 30 32 33 32 32 33 32 34 33 35 32 30 30 26 22 16 14 13 13 13 12 12 16 21
46 42 42 44 45 40 43 47 41 33 34 29 27 29 26 28 27 25 25 25 23 24 27 30 31 30 30 30 28 28 28 28 30 31 26 28 26 22 16 14 11 11 11 8 7 7 8 7 9
49 44 45 42 38 44 40 47 36 25 29 27 25 20 19 26 28 24 22 22 22 24 27 29 29 28 30 28 26 25 24 26 24 23 24 21 19 14 11 8 7 6 6 5 7 9 8 1 7
57 51 43 43 43 45 39 41 28 21 26 20 21 22 23 26 20 22 20 20 21 24 25 27 26 25 25 23 20 21 21 21 20 21 18 16 13 11 7 6 6 7 7 5 5 7 6 4 7
67 62 55 52 40 38 35 35 24 21 19 13 13 16 17 21 20 17 17 18 21 22 24 24 22 20 20 17 18 17 18 15 18 18 13 10 10 7 5 5 4 4 3 4 5 5 2 4 6
70 63 49 35 28 24 21 21 19 20 14 11 14 18 15 12 12 13 15 18 21 22 22 19 19 20 16 15 13 14 14 15 14 12 5 6 7 3 4 2 1 0 3 4 4 2 8 9 9
59 52 50 50 39 29 21 19 16 19 19 15 12 12 11 12 12 12 16 19 19 20 18 18 18 15 13 12 13 14 13 11 9 6 3 4 5 1 4 1 1 3 4 2 2 3 4 10 8
69 51 57 44 37 32 24 17 20 23 13 12 10 13 6 7 10 12 16 17 21 16 16 15 12 11 12 11 14 12 11 6 7 3 2 2 2 2 3 2 5 5 3 3 5 7 9 11 10
62 53 55 54 45 30 23 16 22 25 26 22 19 20 10 9 11 15 16 18 14 14 12 9 9 10 9 11 10 7 5 3 1 3 2 1 2 5 6 2 4 4 1 4 6 7 13 14 7
Wind_Direction
237 237 233 238 245 253 278 274 234 271 274 285 298 302 304 300 303 295 294 294 299 300 304 307 309 311 314 314 313 317 312 314 317 317 314 309 305 297 291 290 282 275 265 259 262 262 260 257 254
243 243 242 242 248 262 312 269 273 268 263 293 298 301 309 307 302 310 303 303 304 308 308 307 309 307 308 313 314 319 316 318 319 316 311 305 301 301 300 293 285 280 272 264 259 260 260 258 255
240 242 243 242 246 227 264 266 239 256 280 288 296 299 300 299 304 309 300 300 306 312 310 310 312 311 308 314 314 318 319 318 317 313 307 301 299 297 296 295 292 284 272 267 264 262 260 259 258
239 242 242 242 244 250 227 273 253 270 298 290 288 295 300 298 307 304 299 300 305 309 312 313 315 314 311 315 313 317 316 316 315 309 303 304 298 295 292 293 291 287 284 271 265 260 259 257 256
242 242 242 240 243 242 253 241 246 260 274 291 286 302 301 297 305 307 302 302 304 306 311 313 313 311 309 312 311 314 315 314 312 306 306 303 300 296 290 283 285 285 284 278 273 266 260 256 257
242 242 240 241 253 261 261 260 260 267 269 271 282 297 309 299 295 308 305 306 310 312 317 312 310 305 306 310 309 311 315 311 309 308 307 306 304 302 298 293 287 283 282 276 273 268 266 256 254
243 242 240 239 239 237 255 262 269 271 268 279 268 278 293 299 294 307 306 308 309 314 316 310 306 301 303 308 305 312 312 309 308 310 310 310 307 302 297 293 288 282 281 275 268 263 259 260 250
243 244 243 239 245 249 255 258 268 267 268 257 270 281 282 280 298 302 301 311 311 314 315 313 305 302 306 304 307 311 311 309 309 312 312 311 308 303 300 297 293 289 283 280 276 269 261 255 255
242 243 248 248 246 250 264 270 268 264 263 265 273 276 280 284 290 296 297 302 314 315 314 309 303 304 301 303 307 309 308 307 308 312 314 309 309 303 301 299 296 292 288 285 279 276 270 263 258
246 243 251 255 253 258 258 259 266 264 276 265 273 271 283 284 290 294 298 304 313 313 312 304 299 301 298 305 308 307 304 304 307 312 310 306 305 302 305 302 298 294 291 289 282 277 273 266 261
249 255 258 252 253 260 265 261 270 263 263 270 273 268 274 279 282 288 296 305 305 307 303 304 304 297 301 304 308 304 303 301 308 308 306 306 304 299 304 301 297 290 292 290 280 279 274 264 259
253 256 258 255 253 256 250 261 267 265 261 263 269 269 272 274 278 282 291 297 300 302 301 301 306 296 302 302 304 303 298 303 305 305 310 308 305 304 304 303 299 292 292 285 282 277 268 266 260
255 260 260 259 260 261 264 263 271 271 265 263 264 267 270 273 279 284 285 291 298 296 291 295 300 301 300 300 301 297 296 304 306 309 310 311 307 308 305 302 300 297 293 287 279 280 268 263 262
260 264 263 263 263 265 269 269 267 268 263 262 264 266 267 272 277 284 286 289 293 291 285 290 297 298 297 293 298 296 300 305 307 311 310 308 306 305 303 305 300 297 292 292 280 273 268 261 259
261 264 263 264 269 272 272 263 263 266 269 269 269 264 265 271 279 282 285 286 291 289 289 289 291 294 295 294 292 296 297 307 309 312 309 310 306 302 300 304 300 297 292 288 280 277 272 267 260
256 259 259 261 270 271 270 268 265 265 266 259 269 268 259 267 276 280 281 284 287 281 288 289 290 290 290 294 294 289 298 310 309 310 310 309 306 302 302 301 300 297 292 285 279 273 270 265 260
253 259 266 266 264 267 264 273 269 261 262 263 269 269 265 266 272 277 276 281 279 276 285 291 288 288 294 288 292 296 300 304 307 308 308 308 305 301 300 298 299 297 291 286 280 273 265 260 262
260 264 262 266 269 264 270 274 276 265 263 263 266 269 271 266 272 274 271 280 276 274 286 292 288 284 287 285 289 294 296 303 306 304 307 306 303 303 301 301 299 297 294 286 281 271 269 262 263
255 257 262 266 270 268 276 258 264 278 274 266 263 265 273 272 274 272 271 277 270 277 289 288 287 288 290 283 288 290 295 300 300 302 304 301 304 303 300 302 296 296 290 282 277 269 262 260 259
247 253 256 262 267 255 259 264 265 271 275 276 275 269 270 269 269 267 268 269 265 280 282 282 287 287 292 292 286 289 291 294 298 301 300 302 302 299 299 300 297 294 289 284 277 270 265 256 251
243 248 254 264 267 259 257 268 275 276 280 276 268 264 268 270 261 259 261 258 263 279 275 277 286 292 289 286 282 285 289 294 299 301 302 305 302 302 303 299 298 296 292 286 281 273 264 255 252
245 249 251 253 257 258 267 271 268 274 285 282 284 279 270 257 253 253 255 253 267 276 274 273 283 285 287 285 287 288 290 298 302 300 305 303 307 307 304 302 308 307 301 297 289 285 275 253 241
238 241 248 252 255 261 260 265 271 281 278 289 289 280 267 250 244 247 247 251 272 277 274 275 280 285 284 287 288 287 297 300 300 304 306 311 313 310 311 316 322 327 326 317 306 308 284 247 223
230 234 237 242 252 254 260 262 268 280 288 288 262 253 243 230 235 234 241 257 269 269 272 277 286 284 281 283 284 293 296 300 306 308 312 314 318 327 331 332 334 319 331 6 9 11 21 95 175
224 225 229 238 244 257 257 259 278 280 282 265 245 242 228 223 223 232 242 259 259 266 277 285 288 281 282 281 287 297 297 304 310 312 316 316 329 334 335 354 322 300 312 344 353 12 31 85 157
223 226 233 237 241 252 267 264 267 285 269 245 235 226 211 217 226 237 246 253 266 273 287 284 279 280 286 288 297 294 304 303 311 314 315 322 332 335 356 341 314 296 317 341 20 24 58 118 145
220 222 229 219 246 246 251 270 275 275 222 209 229 226 232 226 222 233 241 259 270 278 279 273 274 285 285 296 292 298 303 305 316 322 311 336 338 350 18 336 273 178 81 69 67 61 103 117 143
207 221 213 218 221 234 232 232 251 272 217 225 218 217 223 220 226 234 252 266 278 276 273 277 280 283 288 291 295 303 297 311 315 327 331 354 338 46 42 187 150 125 101 81 339 339 4 117 139
203 206 212 219 215 224 233 247 245 230 193 212 211 231 217 223 233 250 264 275 279 271 276 283 282 286 292 286 302 302 298 321 320 342 15 9 10 182 127 239 138 121 124 92 29 40 105 145 146
208 205 207 210 211 211 230 228 241 226 201 188 183 225 226 219 241 258 272 280 273 270 281 282 284 289 286 297 305 296 302 334 6 25 18 348 88 174 153 188 154 136 86 73 41 31 32 71 85
Height
5893 5893 5894 5896 5899 5898 5897 5899 5899 5897 5898 5897 5898 5896 5894 5892 5891 5892 5885 5880 5875 5871 5869 5865 5861 5859 5856 5853 5853 5853 5851 5849 5848 5845 5843 5841 5839 5837 5837 5836 5835 5834 5834 5834 5833 5834 5835 5836 5839
5889 5891 5891 5892 5895 5895 5900 5897 5894 5895 5893 5892 5892 5891 5888 5886 5884 5884 5877 5875 5872 5868 5866 5863 5859 5855 5852 5849 5849 5849 5848 5845 5843 5840 5838 5835 5833 5832 5830 5829 5829 5828 5828 5827 5827 5827 5827 5829 5832
5886 5887 5889 5889 5891 5895 5903 5895 5893 5887 5888 5889 5889 5885 5885 5881 5878 5879 5876 5872 5868 5865 5863 5860 5855 5851 5848 5845 5845 5844 5843 5841 5838 5836 5834 5831 5829 5827 5825 5824 5822 5822 5822 5821 5821 5821 5822 5823 5824
5881 5883 5884 5886 5888 5892 5893 5894 5892 5886 5886 5882 5884 5885 5880 5873 5875 5873 5871 5868 5864 5861 5858 5856 5852 5847 5843 5842 5842 5840 5838 5836 5834 5832 5829 5827 5824 5821 5820 5818 5816 5816 5814 5814 5815 5814 5814 5816 5817
5876 5878 5878 5882 5884 5886 5888 5887 5885 5885 5885 5882 5880 5880 5878 5864 5869 5868 5865 5862 5858 5856 5854 5852 5848 5844 5840 5839 5837 5837 5835 5832 5828 5827 5824 5822 5819 5815 5813 5811 5810 5809 5808 5807 5807 5808 5808 5809 5810
5871 5872 5874 5878 5881 5884 5882 5877 5878 5879 5880 5881 5876 5874 5875 5865 5863 5863 5860 5855 5853 5847 5849 5844 5843 5840 5837 5836 5834 5832 5830 5828 5825 5822 5819 5816 5813 5808 5806 5804 5802 5801 5799 5800 5800 5800 5800 5802 5803
5867 5867 5869 5873 5878 5881 5877 5872 5873 5873 5876 5877 5873 5869 5872 5866 5854 5860 5854 5852 5849 5846 5841 5839 5839 5835 5833 5832 5829 5828 5826 5824 5821 5817 5814 5811 5807 5802 5800 5798 5796 5793 5792 5792 5791 5792 5793 5793 5795
5859 5860 5861 5865 5871 5873 5873 5866 5869 5867 5869 5867 5865 5864 5866 5862 5855 5855 5852 5850 5847 5841 5837 5834 5832 5830 5829 5827 5825 5823 5820 5818 5815 5812 5808 5805 5801 5797 5794 5791 5789 5787 5786 5785 5784 5784 5785 5785 5787
5851 5850 5852 5860 5864 5866 5866 5866 5867 5858 5860 5860 5860 5856 5856 5854 5851 5849 5848 5846 5844 5837 5834 5828 5826 5826 5825 5823 5821 5818 5815 5813 5809 5805 5803 5799 5796 5792 5788 5786 5783 5782 5780 5778 5777 5777 5776 5777 5778
5842 5842 5847 5855 5858 5858 5860 5860 5860 5858 5853 5854 5854 5853 5850 5847 5844 5843 5841 5840 5837 5836 5830 5825 5823 5822 5821 5819 5817 5814 5811 5808 5804 5800 5797 5794 5791 5787 5782 5779 5777 5775 5774 5771 5771 5770 5769 5769 5770
5835 5835 5843 5846 5850 5851 5850 5850 5851 5848 5846 5848 5848 5847 5844 5841 5839 5837 5835 5833 5833 5832 5826 5823 5818 5818 5816 5814 5811 5809 5806 5803 5799 5795 5791 5789 5785 5781 5778 5775 5772 5769 5767 5763 5763 5762 5762 5763 5764
5824 5827 5832 5837 5838 5838 5838 5840 5839 5839 5838 5839 5843 5839 5837 5835 5833 5832 5832 5830 5829 5824 5820 5815 5813 5813 5812 5808 5806 5803 5800 5797 5793 5791 5787 5783 5779 5776 5773 5769 5765 5762 5759 5757 5756 5754 5755 5755 5757
5815 5821 5823 5826 5828 5829 5830 5827 5828 5829 5831 5832 5834 5832 5830 5827 5826 5828 5827 5824 5822 5819 5814 5809 5808 5808 5807 5804 5800 5799 5795 5792 5789 5784 5781 5777 5773 5770 5766 5764 5760 5755 5752 5751 5750 5749 5749 5749 5750
5811 5810 5811 5814 5815 5818 5817 5820 5820 5820 5822 5825 5825 5823 5822 5820 5820 5821 5820 5818 5816 5812 5807 5805 5803 5802 5802 5800 5795 5795 5791 5786 5784 5779 5776 5773 5768 5765 5761 5757 5754 5750 5747 5744 5743 5743 5743 5743 5744
5798 5797 5799 5800 5806 5806 5806 5803 5809 5815 5816 5817 5816 5816 5814 5814 5814 5814 5813 5811 5810 5806 5802 5800 5798 5797 5796 5795 5792 5790 5787 5782 5779 5775 5771 5767 5763 5759 5755 5751 5748 5744 5741 5738 5737 5736 5735 5735 5736
5783 5786 5786 5797 5800 5797 5799 5791 5806 5809 5806 5806 5806 5806 5804 5807 5806 5806 5804 5802 5804 5800 5797 5796 5793 5792 5791 5789 5787 5785 5780 5779 5772 5769 5765 5762 5758 5753 5748 5745 5741 5737 5735 5732 5730 5729 5728 5728 5729
5773 5775 5784 5787 5790 5792 5792 5784 5794 5798 5796 5796 5797 5796 5798 5799 5801 5800 5795 5795 5797 5794 5791 5790 5789 5786 5785 5784 5782 5778 5775 5773 5768 5764 5759 5755 5751 5747 5743 5738 5734 5731 5727 5724 5721 5720 5719 5720 5721
5770 5771 5772 5776 5786 5785 5784 5781 5786 5786 5786 5786 5788 5788 5789 5792 5792 5791 5787 5790 5790 5787 5785 5784 5783 5781 5780 5778 5776 5773 5770 5767 5762 5759 5754 5748 5744 5739 5735 5731 5727 5722 5718 5715 5713 5712 5711 5712 5713
5763 5761 5764 5770 5777 5774 5774 5776 5780 5776 5774 5776 5779 5780 5780 5782 5780 5779 5782 5784 5783 5781 5779 5778 5777 5775 5774 5773 5770 5767 5764 5761 5757 5753 5748 5742 5737 5731 5727 5723 5718 5714 5709 5706 5704 5702 5702 5703 5704
5751 5752 5756 5763 5769 5769 5766 5765 5768 5768 5766 5770 5771 5770 5766 5768 5770 5772 5774 5777 5776 5775 5774 5772 5771 5770 5768 5766 5764 5762 5759 5755 5751 5746 5742 5737 5730 5724 5719 5714 5709 5704 5700 5697 5695 5694 5693 5694 5696
5738 5744 5751 5756 5760 5756 5756 5752 5757 5758 5759 5759 5758 5756 5756 5761 5763 5764 5766 5769 5769 5768 5767 5767 5765 5764 5763 5761 5758 5755 5752 5748 5744 5739 5733 5729 5722 5716 5711 5705 5701 5697 5693 5690 5688 5687 5686 5687 5688
5729 5738 5745 5746 5746 5744 5753 5742 5748 5750 5754 5749 5749 5748 5750 5753 5756 5757 5759 5763 5762 5763 5762 5761 5760 5759 5757 5755 5753 5750 5747 5742 5738 5733 5725 5720 5716 5710 5704 5700 5696 5691 5688 5686 5685 5683 5682 5681 5683
5724 5730 5734 5735 5737 5740 5741 5739 5742 5748 5744 5743 5742 5741 5744 5747 5750 5752 5753 5756 5757 5758 5757 5755 5755 5754 5752 5750 5747 5744 5741 5737 5732 5726 5720 5716 5710 5705 5700 5696 5692 5689 5687 5685 5684 5681 5679 5678 5680
5716 5720 5724 5727 5732 5727 5735 5733 5737 5744 5737 5736 5735 5735 5737 5741 5744 5746 5749 5752 5752 5752 5751 5751 5749 5748 5747 5745 5742 5739 5736 5731 5727 5721 5717 5712 5706 5702 5698 5696 5692 5690 5688 5686 5683 5680 5678 5677 5678
5700 5707 5713 5719 5720 5720 5729 5727 5736 5737 5732 5730 5730 5730 5732 5735 5740 5742 5745 5747 5747 5747 5746 5745 5744 5743 5742 5739 5736 5734 5731 5727 5722 5717 5713 5708 5704 5701 5698 5695 5692 5691 5689 5686 5684 5682 5681 5681 5682
5685 5695 5704 5710 5716 5720 5722 5722 5730 5731 5728 5727 5727 5728 5730 5733 5736 5739 5742 5743 5743 5743 5742 5741 5740 5739 5736 5734 5732 5730 5726 5723 5718 5714 5710 5706 5703 5700 5698 5696 5694 5692 5690 5688 5687 5685 5684 5684 5685
5673 5678 5705 5711 5717 5719 5725 5724 5725 5726 5727 5726 5726 5728 5730 5732 5734 5737 5738 5739 5739 5739 5739 5737 5736 5734 5732 5730 5728 5726 5722 5719 5715 5711 5707 5704 5702 5701 5698 5697 5695 5694 5693 5691 5691 5690 5689 5689 5688
5660 5686 5688 5698 5708 5715 5720 5723 5722 5723 5724 5724 5726 5726 5728 5731 5732 5734 5735 5735 5735 5735 5735 5734 5732 5729 5728 5726 5725 5722 5719 5716 5712 5709 5705 5703 5702 5701 5700 5699 5698 5697 5696 5695 5693 5693 5692 5692 5692
5649 5662 5676 5694 5702 5710 5716 5720 5718 5719 5723 5723 5726 5725 5727 5729 5730 5732 5732 5733 5732 5733 5732 5730 5727 5726 5725 5723 5721 5718 5716 5713 5710 5707 5704 5703 5702 5702 5701 5701 5700 5699 5699 5698 5696 5694 5694 5695 5694
5644 5657 5670 5678 5691 5703 5713 5718 5710 5714 5717 5720 5723 5723 5726 5727 5729 5729 5730 5730 5729 5729 5728 5726 5725 5724 5722 5721 5718 5716 5713 5711 5709 5706 5704 5703 5703 5702 5702 5703 5702 5701 5701 5701 5700 5698 5697 5696 5696